#datetime,building,power
2022-03-13T00:00:00,mfh,51.18
2022-03-13T00:01:00,mfh,50.25
2022-03-13T00:02:00,mfh,52.83
2022-03-13T00:03:00,mfh,45.05
2022-03-13T00:04:00,mfh,45.15
2022-03-13T00:05:00,mfh,45.14
2022-03-13T00:06:00,mfh,44.91
2022-03-13T00:07:00,mfh,45.80
2022-03-13T00:08:00,mfh,45.70
2022-03-13T00:09:00,mfh,45.67
2022-03-13T00:10:00,mfh,45.88
2022-03-13T00:11:00,mfh,45.68
2022-03-13T00:12:00,mfh,45.69
2022-03-13T00:13:00,mfh,45.64
2022-03-13T00:14:00,mfh,45.81
2022-03-13T00:15:00,mfh,46.77
2022-03-13T00:16:00,mfh,47.20
2022-03-13T00:17:00,mfh,47.61
2022-03-13T00:18:00,mfh,47.65
2022-03-13T00:19:00,mfh,47.44
2022-03-13T00:20:00,mfh,46.79
2022-03-13T00:21:00,mfh,46.63
2022-03-13T00:22:00,mfh,44.81
2022-03-13T00:23:00,mfh,44.81
2022-03-13T00:24:00,mfh,45.37
2022-03-13T00:25:00,mfh,45.28
2022-03-13T00:26:00,mfh,45.36
2022-03-13T00:27:00,mfh,45.34
2022-03-13T00:28:00,mfh,45.41
2022-03-13T00:29:00,mfh,45.01
2022-03-13T00:30:00,mfh,45.28
2022-03-13T00:31:00,mfh,45.32
2022-03-13T00:32:00,mfh,45.30
2022-03-13T00:33:00,mfh,45.81
2022-03-13T00:34:00,mfh,45.96
2022-03-13T00:35:00,mfh,46.00
2022-03-13T00:36:00,mfh,45.75
2022-03-13T00:37:00,mfh,44.86
2022-03-13T00:38:00,mfh,43.36
2022-03-13T00:39:00,mfh,43.36
2022-03-13T00:40:00,mfh,43.32
2022-03-13T00:41:00,mfh,43.93
2022-03-13T00:42:00,mfh,44.00
2022-03-13T00:43:00,mfh,44.05
2022-03-13T00:44:00,mfh,45.47
2022-03-13T00:45:00,mfh,45.59
2022-03-13T00:46:00,mfh,44.87
2022-03-13T00:47:00,mfh,44.87
2022-03-13T00:48:00,mfh,44.76
2022-03-13T00:49:00,mfh,45.96
2022-03-13T00:50:00,mfh,44.52
2022-03-13T00:51:00,mfh,44.77
2022-03-13T00:52:00,mfh,44.75
2022-03-13T00:53:00,mfh,43.97
2022-03-13T00:54:00,mfh,44.18
2022-03-13T00:55:00,mfh,43.37
2022-03-13T00:56:00,mfh,43.59
2022-03-13T00:57:00,mfh,43.95
2022-03-13T00:58:00,mfh,43.14
2022-03-13T00:59:00,mfh,43.70
2022-03-13T01:00:00,mfh,43.87
2022-03-13T01:01:00,mfh,44.10
2022-03-13T01:02:00,mfh,44.12
2022-03-13T01:03:00,mfh,43.35
2022-03-13T01:04:00,mfh,43.46
2022-03-13T01:05:00,mfh,43.58
2022-03-13T01:06:00,mfh,43.69
2022-03-13T01:07:00,mfh,44.60
2022-03-13T01:08:00,mfh,44.22
2022-03-13T01:09:00,mfh,44.18
2022-03-13T01:10:00,mfh,44.18
2022-03-13T01:11:00,mfh,43.43
2022-03-13T01:12:00,mfh,43.52
2022-03-13T01:13:00,mfh,43.41
2022-03-13T01:14:00,mfh,43.43
2022-03-13T01:15:00,mfh,43.41
2022-03-13T01:16:00,mfh,43.93
2022-03-13T01:17:00,mfh,43.89
2022-03-13T01:18:00,mfh,43.99
2022-03-13T01:19:00,mfh,46.08
2022-03-13T01:20:00,mfh,45.52
2022-03-13T01:21:00,mfh,45.21
2022-03-13T01:22:00,mfh,45.18
2022-03-13T01:23:00,mfh,46.02
2022-03-13T01:24:00,mfh,45.96
2022-03-13T01:25:00,mfh,45.83
2022-03-13T01:26:00,mfh,45.87
2022-03-13T01:27:00,mfh,45.93
2022-03-13T01:28:00,mfh,45.92
2022-03-13T01:29:00,mfh,45.16
2022-03-13T01:30:00,mfh,45.13
2022-03-13T01:31:00,mfh,45.27
2022-03-13T01:32:00,mfh,45.12
2022-03-13T01:33:00,mfh,58.73
2022-03-13T01:34:00,mfh,65.92
2022-03-13T01:35:00,mfh,73.55
2022-03-13T01:36:00,mfh,74.32
2022-03-13T01:37:00,mfh,73.63
2022-03-13T01:38:00,mfh,73.20
2022-03-13T01:39:00,mfh,73.02
2022-03-13T01:40:00,mfh,70.65
2022-03-13T01:41:00,mfh,70.97
2022-03-13T01:42:00,mfh,70.31
2022-03-13T01:43:00,mfh,70.31
2022-03-13T01:44:00,mfh,69.79
2022-03-13T01:45:00,mfh,69.54
2022-03-13T01:46:00,mfh,68.55
2022-03-13T01:47:00,mfh,68.49
2022-03-13T01:48:00,mfh,69.42
2022-03-13T01:49:00,mfh,69.10
2022-03-13T01:50:00,mfh,68.75
2022-03-13T01:51:00,mfh,61.42
2022-03-13T01:52:00,mfh,48.19
2022-03-13T01:53:00,mfh,48.31
2022-03-13T01:54:00,mfh,48.16
2022-03-13T01:55:00,mfh,42.29
2022-03-13T01:56:00,mfh,42.67
2022-03-13T01:57:00,mfh,43.41
2022-03-13T01:58:00,mfh,43.61
2022-03-13T01:59:00,mfh,43.49
2022-03-13T03:01:00,mfh,43.58
2022-03-13T03:02:00,mfh,43.68
2022-03-13T03:03:00,mfh,43.41
2022-03-13T03:04:00,mfh,43.03
2022-03-13T03:05:00,mfh,43.11
2022-03-13T03:06:00,mfh,43.21
2022-03-13T03:07:00,mfh,43.88
2022-03-13T03:08:00,mfh,43.97
2022-03-13T03:09:00,mfh,44.24
2022-03-13T03:10:00,mfh,44.80
2022-03-13T03:11:00,mfh,43.20
2022-03-13T03:12:00,mfh,43.24
2022-03-13T03:13:00,mfh,43.32
2022-03-13T03:14:00,mfh,43.46
2022-03-13T03:15:00,mfh,44.37
2022-03-13T03:16:00,mfh,44.02
2022-03-13T03:17:00,mfh,44.04
2022-03-13T03:18:00,mfh,44.28
2022-03-13T03:19:00,mfh,44.38
2022-03-13T03:20:00,mfh,43.49
2022-03-13T03:21:00,mfh,43.53
2022-03-13T03:22:00,mfh,43.50
2022-03-13T03:23:00,mfh,43.47
2022-03-13T03:24:00,mfh,44.05
2022-03-13T03:25:00,mfh,44.20
2022-03-13T03:26:00,mfh,43.82
2022-03-13T03:27:00,mfh,43.87
2022-03-13T03:28:00,mfh,43.23
2022-03-13T03:29:00,mfh,43.23
2022-03-13T03:30:00,mfh,43.23
2022-03-13T03:31:00,mfh,43.23
2022-03-13T03:32:00,mfh,43.91
2022-03-13T03:33:00,mfh,44.00
2022-03-13T03:34:00,mfh,43.98
2022-03-13T03:35:00,mfh,44.10
2022-03-13T03:36:00,mfh,45.26
2022-03-13T03:37:00,mfh,45.22
2022-03-13T03:38:00,mfh,45.96
2022-03-13T03:39:00,mfh,45.19
2022-03-13T03:40:00,mfh,46.19
2022-03-13T03:41:00,mfh,46.03
2022-03-13T03:42:00,mfh,46.26
2022-03-13T03:43:00,mfh,46.36
2022-03-13T03:44:00,mfh,46.28
2022-03-13T03:45:00,mfh,45.76
2022-03-13T03:46:00,mfh,45.89
2022-03-13T03:47:00,mfh,45.62
2022-03-13T03:48:00,mfh,45.22
2022-03-13T03:49:00,mfh,45.84
2022-03-13T03:50:00,mfh,45.84
2022-03-13T03:51:00,mfh,45.79
2022-03-13T03:52:00,mfh,45.81
2022-03-13T03:53:00,mfh,45.07
2022-03-13T03:54:00,mfh,45.05
2022-03-13T03:55:00,mfh,44.97
2022-03-13T03:56:00,mfh,44.95
2022-03-13T03:57:00,mfh,43.20
2022-03-13T03:58:00,mfh,43.91
2022-03-13T03:59:00,mfh,44.01
2022-03-13T04:00:00,mfh,44.08
2022-03-13T04:01:00,mfh,44.19
2022-03-13T04:02:00,mfh,43.50
2022-03-13T04:03:00,mfh,44.51
2022-03-13T04:04:00,mfh,43.28
2022-03-13T04:05:00,mfh,43.26
2022-03-13T04:06:00,mfh,43.97
2022-03-13T04:07:00,mfh,44.27
2022-03-13T04:08:00,mfh,44.30
2022-03-13T04:09:00,mfh,44.01
2022-03-13T04:10:00,mfh,44.05
2022-03-13T04:11:00,mfh,43.19
2022-03-13T04:12:00,mfh,44.61
2022-03-13T04:13:00,mfh,44.51
2022-03-13T04:14:00,mfh,44.14
2022-03-13T04:15:00,mfh,44.83
2022-03-13T04:16:00,mfh,44.07
2022-03-13T04:17:00,mfh,43.96
2022-03-13T04:18:00,mfh,44.10
2022-03-13T04:19:00,mfh,43.34
2022-03-13T04:20:00,mfh,43.39
2022-03-13T04:21:00,mfh,43.50
2022-03-13T04:22:00,mfh,43.80
2022-03-13T04:23:00,mfh,44.30
2022-03-13T04:24:00,mfh,44.70
2022-03-13T04:25:00,mfh,44.35
2022-03-13T04:26:00,mfh,44.15
2022-03-13T04:27:00,mfh,44.15
2022-03-13T04:28:00,mfh,43.98
2022-03-13T04:29:00,mfh,43.78
2022-03-13T04:30:00,mfh,43.86
2022-03-13T04:31:00,mfh,43.61
2022-03-13T04:32:00,mfh,44.34
2022-03-13T04:33:00,mfh,44.40
2022-03-13T04:34:00,mfh,44.44
2022-03-13T04:35:00,mfh,44.37
2022-03-13T04:36:00,mfh,43.48
2022-03-13T04:37:00,mfh,43.52
2022-03-13T04:38:00,mfh,43.37
2022-03-13T04:39:00,mfh,43.28
2022-03-13T04:40:00,mfh,43.89
2022-03-13T04:41:00,mfh,43.96
2022-03-13T04:42:00,mfh,43.96
2022-03-13T04:43:00,mfh,44.02
2022-03-13T04:44:00,mfh,44.61
2022-03-13T04:45:00,mfh,44.22
2022-03-13T04:46:00,mfh,43.43
2022-03-13T04:47:00,mfh,43.50
2022-03-13T04:48:00,mfh,43.47
2022-03-13T04:49:00,mfh,44.16
2022-03-13T04:50:00,mfh,46.13
2022-03-13T04:51:00,mfh,46.25
2022-03-13T04:52:00,mfh,46.10
2022-03-13T04:53:00,mfh,45.20
2022-03-13T04:54:00,mfh,45.22
2022-03-13T04:55:00,mfh,45.26
2022-03-13T04:56:00,mfh,45.28
2022-03-13T04:57:00,mfh,46.10
2022-03-13T04:58:00,mfh,45.89
2022-03-13T04:59:00,mfh,45.86
2022-03-13T05:00:00,mfh,46.36
2022-03-13T05:01:00,mfh,65.47
2022-03-13T05:02:00,mfh,66.42
2022-03-13T05:03:00,mfh,66.61
2022-03-13T05:04:00,mfh,66.42
2022-03-13T05:05:00,mfh,66.58
2022-03-13T05:06:00,mfh,67.12
2022-03-13T05:07:00,mfh,66.69
2022-03-13T05:08:00,mfh,66.07
2022-03-13T05:09:00,mfh,65.98
2022-03-13T05:10:00,mfh,65.93
2022-03-13T05:11:00,mfh,65.98
2022-03-13T05:12:00,mfh,64.57
2022-03-13T05:13:00,mfh,64.79
2022-03-13T05:14:00,mfh,65.39
2022-03-13T05:15:00,mfh,65.17
2022-03-13T05:16:00,mfh,65.23
2022-03-13T05:17:00,mfh,65.56
2022-03-13T05:18:00,mfh,65.45
2022-03-13T05:19:00,mfh,65.20
2022-03-13T05:20:00,mfh,64.67
2022-03-13T05:21:00,mfh,64.73
2022-03-13T05:22:00,mfh,64.86
2022-03-13T05:23:00,mfh,65.50
2022-03-13T05:24:00,mfh,65.67
2022-03-13T05:25:00,mfh,66.32
2022-03-13T05:26:00,mfh,65.91
2022-03-13T05:27:00,mfh,65.17
2022-03-13T05:28:00,mfh,65.66
2022-03-13T05:29:00,mfh,65.21
2022-03-13T05:30:00,mfh,65.14
2022-03-13T05:31:00,mfh,65.39
2022-03-13T05:32:00,mfh,65.83
2022-03-13T05:33:00,mfh,65.43
2022-03-13T05:34:00,mfh,65.42
2022-03-13T05:35:00,mfh,65.53
2022-03-13T05:36:00,mfh,64.64
2022-03-13T05:37:00,mfh,64.70
2022-03-13T05:38:00,mfh,64.74
2022-03-13T05:39:00,mfh,65.44
2022-03-13T05:40:00,mfh,65.50
2022-03-13T05:41:00,mfh,65.53
2022-03-13T05:42:00,mfh,65.14
2022-03-13T05:43:00,mfh,65.17
2022-03-13T05:44:00,mfh,64.33
2022-03-13T05:45:00,mfh,64.48
2022-03-13T05:46:00,mfh,64.50
2022-03-13T05:47:00,mfh,64.46
2022-03-13T05:48:00,mfh,65.18
2022-03-13T05:49:00,mfh,65.18
2022-03-13T05:50:00,mfh,65.48
2022-03-13T05:51:00,mfh,65.56
2022-03-13T05:52:00,mfh,65.53
2022-03-13T05:53:00,mfh,64.94
2022-03-13T05:54:00,mfh,64.97
2022-03-13T05:55:00,mfh,64.96
2022-03-13T05:56:00,mfh,65.03
2022-03-13T05:57:00,mfh,65.58
2022-03-13T05:58:00,mfh,65.37
2022-03-13T05:59:00,mfh,66.05
2022-03-13T06:00:00,mfh,65.64
2022-03-13T06:01:00,mfh,64.81
2022-03-13T06:02:00,mfh,64.85
2022-03-13T06:03:00,mfh,64.89
2022-03-13T06:04:00,mfh,64.86
2022-03-13T06:05:00,mfh,65.62
2022-03-13T06:06:00,mfh,65.71
2022-03-13T06:07:00,mfh,65.67
2022-03-13T06:08:00,mfh,65.59
2022-03-13T06:09:00,mfh,65.62
2022-03-13T06:10:00,mfh,65.12
2022-03-13T06:11:00,mfh,65.04
2022-03-13T06:12:00,mfh,65.05
2022-03-13T06:13:00,mfh,65.09
2022-03-13T06:14:00,mfh,65.74
2022-03-13T06:15:00,mfh,67.59
2022-03-13T06:16:00,mfh,67.61
2022-03-13T06:17:00,mfh,67.62
2022-03-13T06:18:00,mfh,66.86
2022-03-13T06:19:00,mfh,66.88
2022-03-13T06:20:00,mfh,66.54
2022-03-13T06:21:00,mfh,66.50
2022-03-13T06:22:00,mfh,67.00
2022-03-13T06:23:00,mfh,67.05
2022-03-13T06:24:00,mfh,67.70
2022-03-13T06:25:00,mfh,67.06
2022-03-13T06:26:00,mfh,66.92
2022-03-13T06:27:00,mfh,66.26
2022-03-13T06:28:00,mfh,66.44
2022-03-13T06:29:00,mfh,66.29
2022-03-13T06:30:00,mfh,66.35
2022-03-13T06:31:00,mfh,67.75
2022-03-13T06:32:00,mfh,67.14
2022-03-13T06:33:00,mfh,67.11
2022-03-13T06:34:00,mfh,66.99
2022-03-13T06:35:00,mfh,66.38
2022-03-13T06:36:00,mfh,64.64
2022-03-13T06:37:00,mfh,64.47
2022-03-13T06:38:00,mfh,64.39
2022-03-13T06:39:00,mfh,65.12
2022-03-13T06:40:00,mfh,66.00
2022-03-13T06:41:00,mfh,64.87
2022-03-13T06:42:00,mfh,64.83
2022-03-13T06:43:00,mfh,64.86
2022-03-13T06:44:00,mfh,64.11
2022-03-13T06:45:00,mfh,65.53
2022-03-13T06:46:00,mfh,65.08
2022-03-13T06:47:00,mfh,65.08
2022-03-13T06:48:00,mfh,65.58
2022-03-13T06:49:00,mfh,64.87
2022-03-13T06:50:00,mfh,64.62
2022-03-13T06:51:00,mfh,64.84
2022-03-13T06:52:00,mfh,64.67
2022-03-13T06:53:00,mfh,63.99
2022-03-13T06:54:00,mfh,64.20
2022-03-13T06:55:00,mfh,64.15
2022-03-13T06:56:00,mfh,64.74
2022-03-13T06:57:00,mfh,65.28
2022-03-13T06:58:00,mfh,64.79
2022-03-13T06:59:00,mfh,65.40
2022-03-13T07:00:00,mfh,65.12
2022-03-13T07:01:00,mfh,64.70
2022-03-13T07:02:00,mfh,64.20
2022-03-13T07:03:00,mfh,64.00
2022-03-13T07:04:00,mfh,64.22
2022-03-13T07:05:00,mfh,64.77
2022-03-13T07:06:00,mfh,64.87
2022-03-13T07:07:00,mfh,64.88
2022-03-13T07:08:00,mfh,65.36
2022-03-13T07:09:00,mfh,63.96
2022-03-13T07:10:00,mfh,64.19
2022-03-13T07:11:00,mfh,63.81
2022-03-13T07:12:00,mfh,63.85
2022-03-13T07:13:00,mfh,64.50
2022-03-13T07:14:00,mfh,64.51
2022-03-13T07:15:00,mfh,64.48
2022-03-13T07:16:00,mfh,64.69
2022-03-13T07:17:00,mfh,64.62
2022-03-13T07:18:00,mfh,64.04
2022-03-13T07:19:00,mfh,64.05
2022-03-13T07:20:00,mfh,64.05
2022-03-13T07:21:00,mfh,64.03
2022-03-13T07:22:00,mfh,64.56
2022-03-13T07:23:00,mfh,65.92
2022-03-13T07:24:00,mfh,64.65
2022-03-13T07:25:00,mfh,65.37
2022-03-13T07:26:00,mfh,63.74
2022-03-13T07:27:00,mfh,64.00
2022-03-13T07:28:00,mfh,63.96
2022-03-13T07:29:00,mfh,64.58
2022-03-13T07:30:00,mfh,64.77
2022-03-13T07:31:00,mfh,64.84
2022-03-13T07:32:00,mfh,64.99
2022-03-13T07:33:00,mfh,64.86
2022-03-13T07:34:00,mfh,64.00
2022-03-13T07:35:00,mfh,64.43
2022-03-13T07:36:00,mfh,66.48
2022-03-13T07:37:00,mfh,65.88
2022-03-13T07:38:00,mfh,66.41
2022-03-13T07:39:00,mfh,66.44
2022-03-13T07:40:00,mfh,66.96
2022-03-13T07:41:00,mfh,66.45
2022-03-13T07:42:00,mfh,66.77
2022-03-13T07:43:00,mfh,65.64
2022-03-13T07:44:00,mfh,65.81
2022-03-13T07:45:00,mfh,65.99
2022-03-13T07:46:00,mfh,65.53
2022-03-13T07:47:00,mfh,65.82
2022-03-13T07:48:00,mfh,65.85
2022-03-13T07:49:00,mfh,65.78
2022-03-13T07:50:00,mfh,65.98
2022-03-13T07:51:00,mfh,72.69
2022-03-13T07:52:00,mfh,73.20
2022-03-13T07:53:00,mfh,73.59
2022-03-13T07:54:00,mfh,73.41
2022-03-13T07:55:00,mfh,73.27
2022-03-13T07:56:00,mfh,73.65
2022-03-13T07:57:00,mfh,73.59
2022-03-13T07:58:00,mfh,72.36
2022-03-13T07:59:00,mfh,76.95
2022-03-13T08:00:00,mfh,76.96
2022-03-13T08:01:00,mfh,77.61
2022-03-13T08:02:00,mfh,77.30
2022-03-13T08:03:00,mfh,85.80
2022-03-13T08:04:00,mfh,86.84
2022-03-13T08:05:00,mfh,86.79
2022-03-13T08:06:00,mfh,86.77
2022-03-13T08:07:00,mfh,86.62
2022-03-13T08:08:00,mfh,86.05
2022-03-13T08:09:00,mfh,86.01
2022-03-13T08:10:00,mfh,85.93
2022-03-13T08:11:00,mfh,85.75
2022-03-13T08:12:00,mfh,85.71
2022-03-13T08:13:00,mfh,85.93
2022-03-13T08:14:00,mfh,85.78
2022-03-13T08:15:00,mfh,85.71
2022-03-13T08:16:00,mfh,86.07
2022-03-13T08:17:00,mfh,85.77
2022-03-13T08:18:00,mfh,85.54
2022-03-13T08:19:00,mfh,85.50
2022-03-13T08:20:00,mfh,85.53
2022-03-13T08:21:00,mfh,85.78
2022-03-13T08:22:00,mfh,85.83
2022-03-13T08:23:00,mfh,85.73
2022-03-13T08:24:00,mfh,85.71
2022-03-13T08:25:00,mfh,85.64
2022-03-13T08:26:00,mfh,82.12
2022-03-13T08:27:00,mfh,81.93
2022-03-13T08:28:00,mfh,81.77
2022-03-13T08:29:00,mfh,82.40
2022-03-13T08:30:00,mfh,82.25
2022-03-13T08:31:00,mfh,82.15
2022-03-13T08:32:00,mfh,82.15
2022-03-13T08:33:00,mfh,82.17
2022-03-13T08:34:00,mfh,81.86
2022-03-13T08:35:00,mfh,85.79
2022-03-13T08:36:00,mfh,85.79
2022-03-13T08:37:00,mfh,85.74
2022-03-13T08:38:00,mfh,85.97
2022-03-13T08:39:00,mfh,85.93
2022-03-13T08:40:00,mfh,85.90
2022-03-13T08:41:00,mfh,85.98
2022-03-13T08:42:00,mfh,85.93
2022-03-13T08:43:00,mfh,85.83
2022-03-13T08:44:00,mfh,85.56
2022-03-13T08:45:00,mfh,85.47
2022-03-13T08:46:00,mfh,88.58
2022-03-13T08:47:00,mfh,88.80
2022-03-13T08:48:00,mfh,88.70
2022-03-13T08:49:00,mfh,88.71
2022-03-13T08:50:00,mfh,88.61
2022-03-13T08:51:00,mfh,88.43
2022-03-13T08:52:00,mfh,88.48
2022-03-13T08:53:00,mfh,88.49
2022-03-13T08:54:00,mfh,88.44
2022-03-13T08:55:00,mfh,88.54
2022-03-13T08:56:00,mfh,88.54
2022-03-13T08:57:00,mfh,88.57
2022-03-13T08:58:00,mfh,88.62
2022-03-13T08:59:00,mfh,88.57
2022-03-13T09:00:00,mfh,88.40
2022-03-13T09:01:00,mfh,88.46
2022-03-13T09:02:00,mfh,88.56
2022-03-13T09:03:00,mfh,88.76
2022-03-13T09:04:00,mfh,88.89
2022-03-13T09:05:00,mfh,88.72
2022-03-13T09:06:00,mfh,88.76
2022-03-13T09:07:00,mfh,88.90
2022-03-13T09:08:00,mfh,88.85
2022-03-13T09:09:00,mfh,88.94
2022-03-13T09:10:00,mfh,88.91
2022-03-13T09:11:00,mfh,89.01
2022-03-13T09:12:00,mfh,89.08
2022-03-13T09:13:00,mfh,89.14
2022-03-13T09:14:00,mfh,89.19
2022-03-13T09:15:00,mfh,89.16
2022-03-13T09:16:00,mfh,89.17
2022-03-13T09:17:00,mfh,89.09
2022-03-13T09:18:00,mfh,89.14
2022-03-13T09:19:00,mfh,89.15
2022-03-13T09:20:00,mfh,89.16
2022-03-13T09:21:00,mfh,89.11
2022-03-13T09:22:00,mfh,89.12
2022-03-13T09:23:00,mfh,89.15
2022-03-13T09:24:00,mfh,89.56
2022-03-13T09:25:00,mfh,89.20
2022-03-13T09:26:00,mfh,89.16
2022-03-13T09:27:00,mfh,89.22
2022-03-13T09:28:00,mfh,89.20
2022-03-13T09:29:00,mfh,89.39
2022-03-13T09:30:00,mfh,89.56
2022-03-13T09:31:00,mfh,89.74
2022-03-13T09:32:00,mfh,89.61
2022-03-13T09:33:00,mfh,89.37
2022-03-13T09:34:00,mfh,89.35
2022-03-13T09:35:00,mfh,89.16
2022-03-13T09:36:00,mfh,89.17
2022-03-13T09:37:00,mfh,89.30
2022-03-13T09:38:00,mfh,89.37
2022-03-13T09:39:00,mfh,89.42
2022-03-13T09:40:00,mfh,89.44
2022-03-13T09:41:00,mfh,89.51
2022-03-13T09:42:00,mfh,89.29
2022-03-13T09:43:00,mfh,89.31
2022-03-13T09:44:00,mfh,89.36
2022-03-13T09:45:00,mfh,89.35
2022-03-13T09:46:00,mfh,89.39
2022-03-13T09:47:00,mfh,89.36
2022-03-13T09:48:00,mfh,89.28
2022-03-13T09:49:00,mfh,89.34
2022-03-13T09:50:00,mfh,89.28
2022-03-13T09:51:00,mfh,89.23
2022-03-13T09:52:00,mfh,89.23
2022-03-13T09:53:00,mfh,89.19
2022-03-13T09:54:00,mfh,89.51
2022-03-13T09:55:00,mfh,89.38
2022-03-13T09:56:00,mfh,89.35
2022-03-13T09:57:00,mfh,89.36
2022-03-13T09:58:00,mfh,89.29
2022-03-13T09:59:00,mfh,89.31
2022-03-13T10:00:00,mfh,89.34
2022-03-13T10:01:00,mfh,89.33
2022-03-13T10:02:00,mfh,89.61
2022-03-13T10:03:00,mfh,89.47
2022-03-13T10:04:00,mfh,89.42
2022-03-13T10:05:00,mfh,89.47
2022-03-13T10:06:00,mfh,89.50
2022-03-13T10:07:00,mfh,89.42
2022-03-13T10:08:00,mfh,89.42
2022-03-13T10:09:00,mfh,89.50
2022-03-13T10:10:00,mfh,89.56
2022-03-13T10:11:00,mfh,89.56
2022-03-13T10:12:00,mfh,89.50
2022-03-13T10:13:00,mfh,89.55
2022-03-13T10:14:00,mfh,89.49
2022-03-13T10:15:00,mfh,89.37
2022-03-13T10:16:00,mfh,89.45
2022-03-13T10:17:00,mfh,89.23
2022-03-13T10:18:00,mfh,89.23
2022-03-13T10:19:00,mfh,89.27
2022-03-13T10:20:00,mfh,89.32
2022-03-13T10:21:00,mfh,89.17
2022-03-13T10:22:00,mfh,89.09
2022-03-13T10:23:00,mfh,89.07
2022-03-13T10:24:00,mfh,88.90
2022-03-13T10:25:00,mfh,88.68
2022-03-13T10:26:00,mfh,88.73
2022-03-13T10:27:00,mfh,88.70
2022-03-13T10:28:00,mfh,88.86
2022-03-13T10:29:00,mfh,89.06
2022-03-13T10:30:00,mfh,88.97
2022-03-13T10:31:00,mfh,88.92
2022-03-13T10:32:00,mfh,88.73
2022-03-13T10:33:00,mfh,88.88
2022-03-13T10:34:00,mfh,88.87
2022-03-13T10:35:00,mfh,88.94
2022-03-13T10:36:00,mfh,88.99
2022-03-13T10:37:00,mfh,88.86
2022-03-13T10:38:00,mfh,88.91
2022-03-13T10:39:00,mfh,89.21
2022-03-13T10:40:00,mfh,89.06
2022-03-13T10:41:00,mfh,88.96
2022-03-13T10:42:00,mfh,89.07
2022-03-13T10:43:00,mfh,89.01
2022-03-13T10:44:00,mfh,88.81
2022-03-13T10:45:00,mfh,88.90
2022-03-13T10:46:00,mfh,88.85
2022-03-13T10:47:00,mfh,88.78
2022-03-13T10:48:00,mfh,88.84
2022-03-13T10:49:00,mfh,88.87
2022-03-13T10:50:00,mfh,88.75
2022-03-13T10:51:00,mfh,88.82
2022-03-13T10:52:00,mfh,89.03
2022-03-13T10:53:00,mfh,88.93
2022-03-13T10:54:00,mfh,89.01
2022-03-13T10:55:00,mfh,88.98
2022-03-13T10:56:00,mfh,89.16
2022-03-13T10:57:00,mfh,89.00
2022-03-13T10:58:00,mfh,88.88
2022-03-13T10:59:00,mfh,88.87
2022-03-13T11:00:00,mfh,89.02
2022-03-13T11:01:00,mfh,89.09
2022-03-13T11:02:00,mfh,89.12
2022-03-13T11:03:00,mfh,89.14
2022-03-13T11:04:00,mfh,89.14
2022-03-13T11:05:00,mfh,89.19
2022-03-13T11:06:00,mfh,89.23
2022-03-13T11:07:00,mfh,89.11
2022-03-13T11:08:00,mfh,88.98
2022-03-13T11:09:00,mfh,88.99
2022-03-13T11:10:00,mfh,89.11
2022-03-13T11:11:00,mfh,89.19
2022-03-13T11:12:00,mfh,88.98
2022-03-13T11:13:00,mfh,88.95
2022-03-13T11:14:00,mfh,88.83
2022-03-13T11:15:00,mfh,88.85
2022-03-13T11:16:00,mfh,88.87
2022-03-13T11:17:00,mfh,88.83
2022-03-13T11:18:00,mfh,88.96
2022-03-13T11:19:00,mfh,88.87
2022-03-13T11:20:00,mfh,88.90
2022-03-13T11:21:00,mfh,88.89
2022-03-13T11:22:00,mfh,88.82
2022-03-13T11:23:00,mfh,88.62
2022-03-13T11:24:00,mfh,88.61
2022-03-13T11:25:00,mfh,88.62
2022-03-13T11:26:00,mfh,88.72
2022-03-13T11:27:00,mfh,88.71
2022-03-13T11:28:00,mfh,88.69
2022-03-13T11:29:00,mfh,88.70
2022-03-13T11:30:00,mfh,88.68
2022-03-13T11:31:00,mfh,88.53
2022-03-13T11:32:00,mfh,88.57
2022-03-13T11:33:00,mfh,88.66
2022-03-13T11:34:00,mfh,88.81
2022-03-13T11:35:00,mfh,88.97
2022-03-13T11:36:00,mfh,88.85
2022-03-13T11:37:00,mfh,88.99
2022-03-13T11:38:00,mfh,89.05
2022-03-13T11:39:00,mfh,88.86
2022-03-13T11:40:00,mfh,88.79
2022-03-13T11:41:00,mfh,88.79
2022-03-13T11:42:00,mfh,88.83
2022-03-13T11:43:00,mfh,88.87
2022-03-13T11:44:00,mfh,89.11
2022-03-13T11:45:00,mfh,89.15
2022-03-13T11:46:00,mfh,89.26
2022-03-13T11:47:00,mfh,89.04
2022-03-13T11:48:00,mfh,89.20
2022-03-13T11:49:00,mfh,88.92
2022-03-13T11:50:00,mfh,88.94
2022-03-13T11:51:00,mfh,88.95
2022-03-13T11:52:00,mfh,89.23
2022-03-13T11:53:00,mfh,89.13
2022-03-13T11:54:00,mfh,88.87
2022-03-13T11:55:00,mfh,89.13
2022-03-13T11:56:00,mfh,89.23
2022-03-13T11:57:00,mfh,89.09
2022-03-13T11:58:00,mfh,89.07
2022-03-13T11:59:00,mfh,89.00
2022-03-13T12:00:00,mfh,89.17
2022-03-13T12:01:00,mfh,89.33
2022-03-13T12:02:00,mfh,89.44
2022-03-13T12:03:00,mfh,89.42
2022-03-13T12:04:00,mfh,89.55
2022-03-13T12:05:00,mfh,89.43
2022-03-13T12:06:00,mfh,89.52
2022-03-13T12:07:00,mfh,89.73
2022-03-13T12:08:00,mfh,89.46
2022-03-13T12:09:00,mfh,89.70
2022-03-13T12:10:00,mfh,89.67
2022-03-13T12:11:00,mfh,89.60
2022-03-13T12:12:00,mfh,89.51
2022-03-13T12:13:00,mfh,89.40
2022-03-13T12:14:00,mfh,89.70
2022-03-13T12:15:00,mfh,89.61
2022-03-13T12:16:00,mfh,89.56
2022-03-13T12:17:00,mfh,89.64
2022-03-13T12:18:00,mfh,89.65
2022-03-13T12:19:00,mfh,89.40
2022-03-13T12:20:00,mfh,89.38
2022-03-13T12:21:00,mfh,89.75
2022-03-13T12:22:00,mfh,89.76
2022-03-13T12:23:00,mfh,89.90
2022-03-13T12:24:00,mfh,89.74
2022-03-13T12:25:00,mfh,89.64
2022-03-13T12:26:00,mfh,89.60
2022-03-13T12:27:00,mfh,89.67
2022-03-13T12:28:00,mfh,89.65
2022-03-13T12:29:00,mfh,89.56
2022-03-13T12:30:00,mfh,89.47
2022-03-13T12:31:00,mfh,89.46
2022-03-13T12:32:00,mfh,89.37
2022-03-13T12:33:00,mfh,89.63
2022-03-13T12:34:00,mfh,89.59
2022-03-13T12:35:00,mfh,89.45
2022-03-13T12:36:00,mfh,89.56
2022-03-13T12:37:00,mfh,89.59
2022-03-13T12:38:00,mfh,89.56
2022-03-13T12:39:00,mfh,89.41
2022-03-13T12:40:00,mfh,89.39
2022-03-13T12:41:00,mfh,89.19
2022-03-13T12:42:00,mfh,88.98
2022-03-13T12:43:00,mfh,89.21
2022-03-13T12:44:00,mfh,89.38
2022-03-13T12:45:00,mfh,89.35
2022-03-13T12:46:00,mfh,89.64
2022-03-13T12:47:00,mfh,89.67
2022-03-13T12:48:00,mfh,89.50
2022-03-13T12:49:00,mfh,89.48
2022-03-13T12:50:00,mfh,89.60
2022-03-13T12:51:00,mfh,89.52
2022-03-13T12:52:00,mfh,89.70
2022-03-13T12:53:00,mfh,89.53
2022-03-13T12:54:00,mfh,89.66
2022-03-13T12:55:00,mfh,89.28
2022-03-13T12:56:00,mfh,89.31
2022-03-13T12:57:00,mfh,89.23
2022-03-13T12:58:00,mfh,89.20
2022-03-13T12:59:00,mfh,89.05
2022-03-13T13:00:00,mfh,89.21
2022-03-13T13:01:00,mfh,89.19
2022-03-13T13:02:00,mfh,89.38
2022-03-13T13:03:00,mfh,89.45
2022-03-13T13:04:00,mfh,89.40
2022-03-13T13:05:00,mfh,89.38
2022-03-13T13:06:00,mfh,89.37
2022-03-13T13:07:00,mfh,89.43
2022-03-13T13:08:00,mfh,89.62
2022-03-13T13:09:00,mfh,89.54
2022-03-13T13:10:00,mfh,89.50
2022-03-13T13:11:00,mfh,89.54
2022-03-13T13:12:00,mfh,89.28
2022-03-13T13:13:00,mfh,89.30
2022-03-13T13:14:00,mfh,89.30
2022-03-13T13:15:00,mfh,89.44
2022-03-13T13:16:00,mfh,89.54
2022-03-13T13:17:00,mfh,89.38
2022-03-13T13:18:00,mfh,89.60
2022-03-13T13:19:00,mfh,89.39
2022-03-13T13:20:00,mfh,89.26
2022-03-13T13:21:00,mfh,89.28
2022-03-13T13:22:00,mfh,89.14
2022-03-13T13:23:00,mfh,89.23
2022-03-13T13:24:00,mfh,89.53
2022-03-13T13:25:00,mfh,89.42
2022-03-13T13:26:00,mfh,89.28
2022-03-13T13:27:00,mfh,89.48
2022-03-13T13:28:00,mfh,89.52
2022-03-13T13:29:00,mfh,89.36
2022-03-13T13:30:00,mfh,89.44
2022-03-13T13:31:00,mfh,89.41
2022-03-13T13:32:00,mfh,89.37
2022-03-13T13:33:00,mfh,89.44
2022-03-13T13:34:00,mfh,89.43
2022-03-13T13:35:00,mfh,89.35
2022-03-13T13:36:00,mfh,89.37
2022-03-13T13:37:00,mfh,89.22
2022-03-13T13:38:00,mfh,89.17
2022-03-13T13:39:00,mfh,89.17
2022-03-13T13:40:00,mfh,89.20
2022-03-13T13:41:00,mfh,89.31
2022-03-13T13:42:00,mfh,89.32
2022-03-13T13:43:00,mfh,89.29
2022-03-13T13:44:00,mfh,89.34
2022-03-13T13:45:00,mfh,89.22
2022-03-13T13:46:00,mfh,89.12
2022-03-13T13:47:00,mfh,89.14
2022-03-13T13:48:00,mfh,89.11
2022-03-13T13:49:00,mfh,89.08
2022-03-13T13:50:00,mfh,89.37
2022-03-13T13:51:00,mfh,89.27
2022-03-13T13:52:00,mfh,89.32
2022-03-13T13:53:00,mfh,89.39
2022-03-13T13:54:00,mfh,89.25
2022-03-13T13:55:00,mfh,89.35
2022-03-13T13:56:00,mfh,89.41
2022-03-13T13:57:00,mfh,89.57
2022-03-13T13:58:00,mfh,89.56
2022-03-13T13:59:00,mfh,89.54
2022-03-13T14:00:00,mfh,89.43
2022-03-13T14:01:00,mfh,89.46
2022-03-13T14:02:00,mfh,89.59
2022-03-13T14:03:00,mfh,89.39
2022-03-13T14:04:00,mfh,89.47
2022-03-13T14:05:00,mfh,89.45
2022-03-13T14:06:00,mfh,89.43
2022-03-13T14:07:00,mfh,89.36
2022-03-13T14:08:00,mfh,89.52
2022-03-13T14:09:00,mfh,89.58
2022-03-13T14:10:00,mfh,89.52
2022-03-13T14:11:00,mfh,89.72
2022-03-13T14:12:00,mfh,89.58
2022-03-13T14:13:00,mfh,89.64
2022-03-13T14:14:00,mfh,89.57
2022-03-13T14:15:00,mfh,89.50
2022-03-13T14:16:00,mfh,89.59
2022-03-13T14:17:00,mfh,89.64
2022-03-13T14:18:00,mfh,89.81
2022-03-13T14:19:00,mfh,89.63